Location: ??????????
(54.4061°N, 22.6114°E)
Time: 11:02:34
(UTC+00:00)

STARLINK-25 - Pass Details

Date: 23 October 2019
Orbit: 548 x 551 km, 53.0° (Epoch: 17 November)

Event Time Altitude Azimuth Distance (km) Brightness Sun altitude
Rises 15:57:31 0° 264° (W) 2,717 9.8 -6.9°
Reaches altitude 10° 15:59:45 10° 262° (W) 1,824 8.1 -7.3°
Maximum altitude 16:03:53 74° 179° (S) 575 3.7 -7.9°
Enters shadow 16:07:56 11° 94° (E) 1,792 5.6 -8.4°
